Location: Harbor View
(36.2448°N, 86.5797°W)
Time: 14:22:40
(UTC+00:00)

Daily predictions for brighter satellites

Satellite Brightness Start Highest point End
(mag) Time Altitude Azimuth Time Altitude Azimuth Time Altitude Azimuth
Cosmos 2219 3.7 23:13:46 10° N 23:19:11 41° ENE 23:24:34 10° SE
Meteor 2-16 Rocket 4.5 23:13:44 10° N 23:19:45 59° E 23:25:44 10° SSE
Cosmos 1939 Rocket 3.8 23:19:03 10° SE 23:22:17 25° ENE 23:25:31 10° NNE
Cosmos 1892 4.0 23:19:43 10° NNE 23:22:43 21° ENE 23:25:41 10° SE
Cosmos 1656 3.7 23:18:12 10° SSW 23:23:44 81° ESE 23:29:22 10° NNE
Cosmos 968 Rocket 4.3 23:21:36 10° N 23:26:04 28° ENE 23:30:29 10° SE
Cosmos 1300 3.4 23:23:41 10° SSW 23:27:25 60° W 23:31:13 10° N
OAO 3 Rocket 4.2 23:23:38 10° W 23:28:13 43° SSW 23:32:42 10° SE
Aureole 3 Rocket 3.1 23:24:31 10° S 23:28:14 64° E 23:33:20 10° NNE
NOAA 12 4.2 23:23:30 10° SSE 23:28:47 86° WSW 23:34:08 10° NNW
CZ-4B R/B 1.4 23:25:51 10° N 23:29:00 74° WNW 23:32:04 10° SSW
NOSS 3-3 (A) 3.9 23:24:08 10° SSW 23:29:40 62° ESE 23:35:49 10° NE
SAR-Lupe-4 3.6 23:26:10 10° NNE 23:29:42 57° E 23:33:13 10° S
NOSS 3-3 (C) 3.9 23:24:15 10° SSW 23:29:48 61° ESE 23:35:56 10° NE
Cosmos 1400 Rocket 2.9 23:27:37 10° S 23:31:44 88° E 23:35:50 10° N
CZ-4B R/B 3.8 23:27:58 10° S 23:33:32 66° WSW 23:39:02 10° NNW
Feng Yun 1-1 Rocket 4.5 23:29:22 10° SSE 23:35:06 56° ENE 23:40:53 10° N
Cosmos 2369 4.1 23:31:15 10° S 23:36:38 44° ESE 23:42:01 10° NE
H-2A R/B 4.5 23:33:37 10° NNW 23:36:52 23° WNW 23:40:05 10° WSW
IRS-1C Rocket 4.4 23:32:12 10° SE 23:37:09 43° ENE 23:42:07 10° N
Cosmos 1825 4.0 23:35:50 10° NE 23:37:06 12° ENE 23:37:06 12° ENE
GPS 2-04 Rocket1 3.2 23:34:02 10° WSW 23:37:53 49° SSE 23:41:13 14° E
ERS-2 3.1 23:34:56 10° N 23:38:28 49° WNW 23:41:59 10° SSW
COSMO-SKYMED 1 2.6 23:35:15 10° NNE 23:39:33 58° E 23:43:49 10° S
Helios 1A Rocket 3.8 23:37:28 10° SE 23:40:57 27° ENE 23:44:26 10° NNE
OAO 2 Rocket 3.3 23:37:55 10° W 23:42:56 76° S 23:46:58 15° E
Cosmos 1244 Rocket 4.5 23:38:58 10° N 23:45:13 80° E 23:51:30 10° S
CZ-2D R/B 3.9 23:41:52 10° SE 23:45:16 32° ENE 23:48:41 10° N
ATLAS 2AS CENTAUR R/B 4.4 23:42:02 10° N 23:45:40 14° NNE 23:48:38 11° NE
YAOGAN 1 3.6 23:43:35 10° ESE 23:47:01 23° ENE 23:50:26 10° NNE
SAR-Lupe-1 4.0 23:43:58 10° NNE 23:47:31 85° WNW 23:51:03 10° SSW
Cosmos 1340 2.5 23:44:53 10° N 23:48:40 73° E 23:52:25 10° SSE
Cosmos 2227 Rocket 2.3 23:44:18 10° NNW 23:49:53 56° ENE 23:55:25 10° SE
OAO 1 Rocket 4.5 23:44:35 10° W 23:49:57 79° S 23:53:59 18° E
CZ-4 R/B 2.2 23:47:41 10° SE 23:51:00 27° ENE 23:54:18 10° NNE
Cosmos 1812 Rocket 4.2 23:48:54 10° SSE 23:52:52 33° E 23:56:48 10° NNE
Okean O Rocket 3.3 23:50:56 10° SSW 23:54:58 36° W 23:59:01 10° NNW
SL-4 R/B 4.1 23:57:41 10° N 23:58:15 10° NNE 23:58:49 10° NNE
